Flag for Canada Weather past 2 weeks in Fort Nelson, British Columbia, Canada

Now
54 °F

Partly sunny.


Feels Like: 53 °F
Forecast: 43 / 68 °F
Wind: 3 mph from East

Location: Fort Nelson

Current Time: Aug 23, 2014 at 10:39:13 AM

Latest Report: Aug 23, 2014 at 10:00 AM


Visibility: 30 mi

Pressure: 30.20 "Hg

Humidity: 67%

Dew point: 43 °F

Location of Fort NelsonLocation

Historic Weather in Fort Nelson — Graph

°F

Fort Nelson temperature yesterday

Maximum temperature yesterday: 70 °F (at 3:00 PM)
Minimum temperature yesterday: 39 °F (at 3:00 AM)
Average temperature yesterday: 53 °F

Past Weeks' High & Low Weather Summary

 TemperatureHumidityPressure
High88 °F (Aug 15, 5:00 PM)100% (Aug 8, 9:00 AM)30.37 "Hg (Aug 8, 9:00 AM)
Low37 °F (Aug 23, 5:00 AM)29% (Aug 18, 6:00 PM)29.65 "Hg (Aug 18, 6:00 PM)
Average63 °F68%29.97 "Hg
* Reported Aug 8 9:00 AM — Aug 23 9:00 AM, Fort Nelson, Weather by CustomWeather, © 2014

Note: Actual official high and low records may vary slightly from our data, if they occured in-between our weather recording intervals... More about our weather records

Advertising

Fort Nelson weather history for previous 24 hours

 ConditionsComfort  
Time TempWeatherWind HumidityBarometerVisibility
9:00 AM
Aug 23
48 °FPartly sunny.No wind76%30.21 "Hg30 mi
8:00 AM45 °FPartly sunny.No wind81%30.22 "Hg30 mi
7:00 AM39 °FScattered clouds.2 mph87%30.23 "Hg30 mi
6:00 AM37 °FPassing clouds.2 mph93%30.23 "Hg30 mi
5:00 AM37 °FPassing clouds.2 mph93%30.23 "Hg15 mi
4:00 AM39 °FPassing clouds.2 mph87%30.24 "Hg15 mi
3:00 AM41 °FClear.No wind87%30.24 "Hg15 mi
2:00 AM43 °FClear.2 mph81%30.24 "Hg15 mi
1:00 AM45 °FClear.No wind81%30.25 "Hg15 mi
12:00 AM48 °FClear.No wind76%30.26 "Hg15 mi
11:00 PM
Aug 22
48 °FPassing clouds.No wind76%30.27 "Hg15 mi
10:00 PM57 °FPassing clouds.6 mph55%30.27 "Hg15 mi
9:00 PM61 °FPassing clouds.5 mph48%30.27 "Hg20 mi
8:00 PM64 °FPassing clouds.6 mph43%30.28 "Hg30 mi
7:00 PM66 °FPassing clouds.7 mph40%30.28 "Hg30 mi
6:00 PM68 °FPassing clouds.8 mph38%30.29 "Hg30 mi
5:00 PM70 °FPassing clouds.8 mph35%30.30 "Hg30 mi
4:00 PM70 °FScattered clouds.9 mph35%30.31 "Hg30 mi
3:00 PM70 °FScattered clouds.5 mph35%30.32 "Hg30 mi
2:00 PM68 °FScattered clouds.8 mph38%30.33 "Hg30 mi
1:00 PM66 °FScattered clouds.6 mph46%30.34 "Hg30 mi
12:00 PM63 °FPassing clouds.5 mph59%30.35 "Hg30 mi
11:00 AM57 °FPassing clouds.2 mph67%30.36 "Hg30 mi
10:00 AM52 °FPassing clouds.3 mph82%30.37 "Hg30 mi
Weather by CustomWeather, © 2014

See weather overviewHow to use our weather pages